5 day graph

You are here

Hive Data

Page: 1 of 16645  Records: 998690

Row Date Time Hive Temp Hive Humidity Outside Temp Outside Humidity Bottom Board Temp Outside Wall Temp Electronics Temp Light Levels inHG Fan Heat Cover Notes
Clear Sorted By: Hive Temp ascending, Outside Temp ascending, Bottom Board Temp ascending, Row descending
View 696803 Nov 11 2015 2:59:26pm 25.3 45 10.9 59 52.7 54.5 68 931 29.56 0 1 0 NA
View 696804 Nov 11 2015 3:00:27pm 25.6 41 11 59 54.95 54.5 68 930 29.56 0 1 0 NA
View 367341 Feb 17 2015 5:31:26am 32 0 33.08 72 104.45 38.75 60.8 236 29.43 0 1 0 NA
View 367319 Feb 17 2015 5:09:18am 32 0 33.26 73 103.55 38.75 60.8 237 29.43 0 1 0 NA
View 367334 Feb 17 2015 5:24:24am 32 0 33.26 72 104 38.75 60.8 237 29.43 0 1 0 NA
View 367333 Feb 17 2015 5:23:23am 32 0 33.26 72 104 38.75 60.8 237 29.43 0 1 0 NA
View 367332 Feb 17 2015 5:22:23am 32 0 33.26 72 104 38.75 60.8 237 29.43 0 1 0 NA
View 367331 Feb 17 2015 5:21:22am 32 0 33.26 73 104 38.75 60.8 237 29.43 0 1 0 NA
View 367330 Feb 17 2015 5:20:22am 32 0 33.26 73 104 38.75 60.8 237 29.43 0 1 0 NA
View 367329 Feb 17 2015 5:19:22am 32 0 33.26 72 104 38.75 60.8 237 29.43 0 1 0 NA
View 367328 Feb 17 2015 5:18:21am 32 0 33.26 73 104 38.75 60.8 237 29.43 0 1 0 NA
View 367327 Feb 17 2015 5:17:21am 32 0 33.26 73 104 38.75 60.8 237 29.43 0 1 0 NA
View 367326 Feb 17 2015 5:16:21am 32 0 33.26 73 104 38.75 60.8 237 29.43 0 1 0 NA
View 367325 Feb 17 2015 5:15:20am 32 0 33.26 73 104 38.75 60.8 237 29.43 0 1 0 NA
View 367324 Feb 17 2015 5:14:20am 32 0 33.26 73 104 38.75 60.8 237 29.44 0 1 0 NA
View 367323 Feb 17 2015 5:13:19am 32 0 33.26 73 104 38.75 60.8 237 29.43 0 1 0 NA
View 367322 Feb 17 2015 5:12:19am 32 0 33.26 74 104 38.75 60.8 237 29.43 0 1 0 NA
View 367321 Feb 17 2015 5:11:19am 32 0 33.26 73 104 38.75 60.8 237 29.44 0 1 0 NA
View 367346 Feb 17 2015 5:36:28am 32 0 33.26 73 104.45 38.75 60.8 237 29.43 0 1 0 NA
View 367345 Feb 17 2015 5:35:28am 32 0 33.26 72 104.45 38.75 60.8 237 29.44 0 1 0 NA
View 367344 Feb 17 2015 5:34:27am 32 0 33.26 73 104.45 38.75 60.8 237 29.43 0 1 0 NA
View 367343 Feb 17 2015 5:33:27am 32 0 33.26 73 104.45 38.75 60.8 237 29.43 0 1 0 NA
View 367342 Feb 17 2015 5:32:26am 32 0 33.26 72 104.45 38.75 60.8 237 29.43 0 1 0 NA
View 367340 Feb 17 2015 5:30:26am 32 0 33.26 73 104.45 38.75 60.8 237 29.43 0 1 0 NA
View 367339 Feb 17 2015 5:29:25am 32 0 33.26 73 104.45 38.75 60.8 237 29.43 0 1 0 NA
View 367338 Feb 17 2015 5:28:25am 32 0 33.26 72 104.45 38.75 60.8 237 29.43 0 1 0 NA
View 367337 Feb 17 2015 5:27:25am 32 0 33.26 72 104.45 38.75 60.8 237 29.43 0 1 0 NA
View 367336 Feb 17 2015 5:26:24am 32 0 33.26 72 104.45 38.75 60.8 237 29.43 0 1 0 NA
View 367335 Feb 17 2015 5:25:24am 32 0 33.26 72 104.45 38.75 60.8 237 29.43 0 1 0 NA
View 367359 Feb 17 2015 5:49:33am 32 0 33.26 73 104.9 38.75 60.8 237 29.43 0 1 0 NA
View 367357 Feb 17 2015 5:47:32am 32 0 33.26 73 104.9 38.75 60.8 237 29.43 0 1 0 NA
View 367354 Feb 17 2015 5:44:31am 32 0 33.26 73 104.9 38.75 60.8 237 29.43 0 1 0 NA
View 367353 Feb 17 2015 5:43:31am 32 0 33.26 73 104.9 38.75 60.8 237 29.43 0 1 0 NA
View 367352 Feb 17 2015 5:42:30am 32 0 33.26 73 104.9 38.75 60.8 237 29.43 0 1 0 NA
View 367351 Feb 17 2015 5:41:30am 32 0 33.26 73 104.9 38.75 60.8 237 29.43 0 1 0 NA
View 367350 Feb 17 2015 5:40:29am 32 0 33.26 73 104.9 38.75 60.8 237 29.43 0 1 0 NA
View 367349 Feb 17 2015 5:39:29am 32 0 33.26 74 104.9 38.75 60.8 237 29.43 0 1 0 NA
View 367348 Feb 17 2015 5:38:29am 32 0 33.26 74 104.9 38.75 60.8 237 29.43 0 1 0 NA
View 367347 Feb 17 2015 5:37:28am 32 0 33.26 74 104.9 38.75 60.8 237 29.43 0 1 0 NA
View 367310 Feb 17 2015 4:59:27am 32 0 33.44 73 103.1 38.75 60.8 237 29.43 0 1 0 NA
View 367309 Feb 17 2015 4:58:27am 32 0 33.44 72 103.1 38.75 60.8 237 29.44 0 1 0 NA
View 367308 Feb 17 2015 4:57:26am 32 0 33.44 72 103.1 38.75 60.8 237 29.44 0 1 0 NA
View 367307 Feb 17 2015 4:56:26am 32 0 33.44 72 103.1 38.75 60.8 238 29.43 0 1 0 NA
View 367320 Feb 17 2015 5:10:18am 32 0 33.44 73 103.55 38.75 60.8 237 29.43 0 1 0 NA
View 367318 Feb 17 2015 5:08:18am 32 0 33.44 73 103.55 38.75 60.8 237 29.43 0 1 0 NA
View 367317 Feb 17 2015 5:07:17am 32 0 33.44 73 103.55 38.75 60.8 237 29.43 0 1 0 NA
View 367316 Feb 17 2015 5:06:17am 32 0 33.44 73 103.55 38.75 60.8 237 29.43 0 1 0 NA
View 367315 Feb 17 2015 5:05:17am 32 0 33.44 73 103.55 38.75 60.8 237 29.43 0 1 0 NA
View 367314 Feb 17 2015 5:04:16am 32 0 33.44 73 103.55 38.75 60.8 237 29.43 0 1 0 NA
View 367313 Feb 17 2015 5:02:28am 32 0 33.44 73 103.55 38.75 60.8 238 29.43 0 1 0 NA
View 367312 Feb 17 2015 5:01:28am 32 0 33.44 73 103.55 38.75 60.8 237 29.43 0 1 0 NA
View 367311 Feb 17 2015 5:00:27am 32 0 33.44 73 103.55 38.75 60.8 237 29.43 0 1 0 NA
View 367369 Feb 17 2015 5:59:36am 32 0 33.44 74 104.9 38.75 60.8 237 29.43 0 1 0 NA
View 367368 Feb 17 2015 5:58:36am 32 0 33.44 74 104.9 38.75 60.8 236 29.43 0 1 0 NA
View 367367 Feb 17 2015 5:57:36am 32 0 33.44 74 104.9 38.75 60.8 236 29.43 0 1 0 NA
View 367366 Feb 17 2015 5:56:35am 32 0 33.44 73 104.9 38.75 60.8 237 29.43 0 1 0 NA
View 367365 Feb 17 2015 5:55:35am 32 0 33.44 73 104.9 38.75 60.8 237 29.43 0 1 0 NA
View 367364 Feb 17 2015 5:54:35am 32 0 33.44 73 104.9 38.75 60.8 236 29.43 0 1 0 NA
View 367363 Feb 17 2015 5:53:34am 32 0 33.44 73 104.9 38.75 60.8 237 29.43 0 1 0 NA
View 367362 Feb 17 2015 5:52:34am 32 0 33.44 72 104.9 38.75 60.8 237 29.43 0 1 0 NA